Simultaneous Nadir Overpasses (SNOs) Predictions

Prediction of SNOs near equator between AQUA and NPP Satellite Orbit:

Table of predicted SNOs near equator for the next 14.0 days since TLE Epoch: 7/3/2016
Index Date (AQUA) Time (AQUA) AQUA Lat,Lon Date (NPP) Time (NPP) NPP Lat,Lon Distance(km) Time Diff (sec)
1 07/05/2016 15:35:48 4.61, -30.77 07/05/2016 15:26:14 4.60, -30.79 2.31 574
2 07/05/2016 16:23:55 -0.09, 137.85 07/05/2016 16:15:37 -0.05, 137.56 32.43 498
3 07/05/2016 17:12:11 -4.46, -53.57 07/05/2016 17:05:08 -4.57, -54.11 61.98 423
4 07/05/2016 18:00:18 8.98, 115.06 07/05/2016 17:54:30 9.17, 114.26 90.94 348
5 07/08/2016 07:09:46 -29.97, -88.35 07/08/2016 06:59:46 -30.79, -88.69 97.03 600
6 07/08/2016 07:51:52 3.14, 85.42 07/08/2016 07:42:43 3.10, 85.32 12.31 549
7 07/08/2016 08:39:58 1.43,-105.95 07/08/2016 08:32:05 1.50,-106.32 42.21 473
8 07/08/2016 09:28:14 -5.98, 62.64 07/08/2016 09:21:36 -6.12, 62.01 71.62 398
9 07/10/2016 23:21:21 -12.33, 31.70 07/10/2016 23:11:25 -12.33, 31.70 0.07 596
10 07/11/2016 00:07:54 1.57,-158.37 07/10/2016 23:59:11 1.56,-158.57 22.33 523
11 07/11/2016 00:56:01 2.95, 10.25 07/11/2016 00:48:33 3.05, 9.80 52.06 448
12 07/11/2016 01:44:17 -7.50, 178.84 07/11/2016 01:38:04 -7.67, 178.13 81.23 373
13 07/13/2016 15:35:44 -4.79, 149.21 07/13/2016 15:26:11 -4.79, 149.19 2.69 573
14 07/13/2016 16:23:57 0.06, -42.16 07/13/2016 16:15:39 0.01, -42.45 32.11 498
15 07/13/2016 17:12:04 4.46, 126.46 07/13/2016 17:05:01 4.60, 125.92 62.01 423
16 07/13/2016 18:00:19 -9.06, -64.94 07/13/2016 17:54:32 -9.21, -65.75 90.73 347
17 07/16/2016 07:09:46 29.96, 91.65 07/16/2016 06:59:47 30.74, 91.31 92.78 600
18 07/16/2016 07:51:43 -3.11, -94.55 07/16/2016 07:42:35 -3.07, -94.65 12.46 548
19 07/16/2016 08:39:59 -1.43, 74.04 07/16/2016 08:32:06 -1.54, 73.67 42.27 473
20 07/16/2016 09:28:05 6.02,-117.33 07/16/2016 09:21:28 6.15,-117.96 71.73 397




NCC Satellite Simultaneous Nadir Overpasses (SNOs) Prediction Service
